When you browse on this site, cookies collect data to enhance your experience and personalize the content and advertising you see.
Visit our Privacy Policy to learn more. By continuing to use the site, you agree to this use of cookies and data.
  • En España
  • Lista de países
  • Para 7 días
  • Temperatura del agua
  • El tiempo en el mapa
  • Informadores
  • user-avatar
    Iniciar sesión

    Tiempo cada hora Bukavu

    Hoy, 24 Febrero, Lunes

    Tiempo Temperatura Precipitaciones Viento Presión Humedad
    00:00 +21°C° 0 mm 0 mps 686 mmHg 80%
    01:00 +21°C° 0 mm 0 mps 686 mmHg 81%
    02:00 +21°C° 0 mm 0 mps 686 mmHg 81%
    03:00 +21°C° 0 mm 0 mps 686 mmHg 82%
    04:00 +20°C° 0 mm 0 mps 686 mmHg 83%
    05:00 +22°C° 0 mm 1 mps 686 mmHg 84%
    06:00 +23°C° 0.2 mm 1 mps 687 mmHg 83%
    07:00 +24°C° 0.2 mm 1 mps 688 mmHg 83%
    08:00 +25°C° 0 mm 1 mps 689 mmHg 81%
    09:00 +28°C° 0 mm 1 mps 689 mmHg 64%
    10:00 +32°C° 0 mm 1 mps 689 mmHg 47%
    11:00 +35°C° 0 mm 1 mps 690 mmHg 29%
    12:00 +35°C° 0 mm 1 mps 689 mmHg 30%
    13:00 +35°C° 0 mm 1 mps 687 mmHg 31%
    14:00 +33°C° 0 mm 0 mps 687 mmHg 27%
    15:00 +34°C° 0 mm 1 mps 687 mmHg 30%
    16:00 +33°C° 0 mm 1 mps 687 mmHg 32%
    17:00 +32°C° 0 mm 1 mps 686 mmHg 35%
    18:00 +31°C° 0 mm 1 mps 687 mmHg 39%
    19:00 +30°C° 0 mm 1 mps 687 mmHg 42%
    20:00 +28°C° 0 mm 1 mps 688 mmHg 46%
    21:00 +27°C° 0 mm 1 mps 688 mmHg 54%
    22:00 +26°C° 0 mm 2 mps 688 mmHg 62%
    23:00 +25°C° 0 mm 2 mps 688 mmHg 70%

    Mañana, 25 Febrero, Martes

    Tiempo Temperatura Precipitaciones Viento Presión Humedad
    00:00 +24°C° 0 mm 2 mps 688 mmHg 76%
    01:00 +23°C° 0 mm 1 mps 687 mmHg 82%
    02:00 +22°C° 0 mm 1 mps 687 mmHg 88%
    03:00 +22°C° 0 mm 1 mps 687 mmHg 91%
    04:00 +21°C° 0 mm 1 mps 687 mmHg 93%
    05:00 +21°C° 0 mm 1 mps 687 mmHg 96%
    06:00 +20°C° 0 mm 0 mps 688 mmHg 91%
    07:00 +21°C° 0 mm 0 mps 689 mmHg 85%
    08:00 +22°C° 0 mm 0 mps 689 mmHg 80%
    09:00 +27°C° 0 mm 1 mps 690 mmHg 67%
    10:00 +30°C° 0 mm 1 mps 690 mmHg 53%
    11:00 +33°C° 0 mm 1 mps 690 mmHg 40%
    12:00 +34°C° 0 mm 1 mps 689 mmHg 38%
    13:00 +34°C° 0 mm 1 mps 688 mmHg 36%
    14:00 +35°C° 0 mm 1 mps 687 mmHg 33%
    15:00 +33°C° 0 mm 1 mps 687 mmHg 38%
    16:00 +31°C° 0 mm 1 mps 687 mmHg 42%
    17:00 +30°C° 0 mm 1 mps 686 mmHg 46%
    18:00 +29°C° 0 mm 1 mps 686 mmHg 49%
    19:00 +28°C° 0 mm 1 mps 687 mmHg 51%
    20:00 +25°C° 0 mm 0 mps 687 mmHg 54%
    21:00 +27°C° 0 mm 1 mps 687 mmHg 55%
    22:00 +26°C° 0 mm 1 mps 687 mmHg 57%
    23:00 +26°C° 0 mm 1 mps 688 mmHg 59%

    Pasado mañana, 26 Febrero, Miércoles

    Tiempo Temperatura Precipitaciones Viento Presión Humedad
    00:00 +25°C° 0 mm 1 mps 687 mmHg 61%
    01:00 +23°C° 0 mm 0 mps 687 mmHg 64%
    02:00 +22°C° 0 mm 0 mps 687 mmHg 66%
    03:00 +21°C° 0 mm 0 mps 686 mmHg 70%
    04:00 +20°C° 0 mm 0 mps 686 mmHg 75%
    05:00 +21°C° 0 mm 1 mps 686 mmHg 80%
    06:00 +23°C° 0 mm 1 mps 687 mmHg 74%
    07:00 +24°C° 0 mm 1 mps 688 mmHg 68%
    08:00 +26°C° 0 mm 1 mps 689 mmHg 62%
    09:00 +29°C° 0 mm 1 mps 689 mmHg 48%
    10:00 +32°C° 0 mm 1 mps 689 mmHg 35%
    11:00 +35°C° 0 mm 1 mps 690 mmHg 21%
    12:00 +37°C° 0 mm 2 mps 689 mmHg 19%
    13:00 +39°C° 0 mm 2 mps 688 mmHg 17%
    14:00 +40°C° 0 mm 2 mps 687 mmHg 15%
    15:00 +39°C° 0 mm 2 mps 686 mmHg 15%
    16:00 +39°C° 0 mm 1 mps 686 mmHg 16%
    17:00 +37°C° 0 mm 1 mps 685 mmHg 17%
    18:00 +34°C° 0 mm 1 mps 685 mmHg 21%
    19:00 +31°C° 0 mm 1 mps 685 mmHg 25%
    20:00 +28°C° 0 mm 1 mps 685 mmHg 28%
    21:00 +27°C° 0 mm 1 mps 686 mmHg 30%
    22:00 +25°C° 0 mm 1 mps 686 mmHg 32%
    23:00 +24°C° 0 mm 1 mps 686 mmHg 34%

    27 Febrero, Jueves

    Tiempo Temperatura Precipitaciones Viento Presión Humedad
    00:00 +24°C° 0 mm 1 mps 686 mmHg 35%
    01:00 +23°C° 0 mm 1 mps 686 mmHg 37%
    02:00 +21°C° 0 mm 0 mps 686 mmHg 39%
    03:00 +20°C° 0 mm 0 mps 686 mmHg 40%
    04:00 +20°C° 0 mm 0 mps 686 mmHg 41%
    05:00 +20°C° 0 mm 0 mps 686 mmHg 42%
    06:00 +21°C° 0 mm 0 mps 687 mmHg 41%
    07:00 +22°C° 0 mm 0 mps 688 mmHg 40%
    08:00 +24°C° 0 mm 0 mps 689 mmHg 38%
    09:00 +27°C° 0 mm 0 mps 689 mmHg 31%
    10:00 +33°C° 0 mm 1 mps 689 mmHg 25%
    11:00 +36°C° 0 mm 1 mps 690 mmHg 18%
    12:00 +37°C° 0 mm 1 mps 689 mmHg 17%
    13:00 +40°C° 0 mm 1 mps 688 mmHg 16%
    14:00 +41°C° 0 mm 1 mps 687 mmHg 15%
    15:00 +40°C° 0 mm 1 mps 686 mmHg 16%
    16:00 +40°C° 0 mm 2 mps 686 mmHg 17%
    17:00 +39°C° 0 mm 2 mps 685 mmHg 18%
    18:00 +34°C° 0 mm 1 mps 685 mmHg 23%
    19:00 +31°C° 0 mm 1 mps 685 mmHg 29%
    20:00 +25°C° 0 mm 0 mps 685 mmHg 34%
    21:00 +25°C° 0 mm 0 mps 685 mmHg 36%
    22:00 +24°C° 0 mm 0 mps 686 mmHg 38%
    23:00 +25°C° 0 mm 1 mps 686 mmHg 40%

    28 Febrero, Viernes

    Tiempo Temperatura Precipitaciones Viento Presión Humedad
    00:00 +22°C° 0 mm 0 mps 686 mmHg 42%
    01:00 +22°C° 0 mm 0 mps 686 mmHg 44%
    02:00 +21°C° 0 mm 0 mps 685 mmHg 46%
    03:00 +21°C° 0 mm 0 mps 686 mmHg 47%
    04:00 +20°C° 0 mm 0 mps 686 mmHg 49%
    05:00 +20°C° 0 mm 0 mps 686 mmHg 50%
    06:00 +21°C° 0 mm 0 mps 687 mmHg 49%
    07:00 +23°C° 0 mm 0 mps 688 mmHg 47%
    08:00 +24°C° 0 mm 0 mps 688 mmHg 46%
    09:00 +30°C° 0 mm 1 mps 689 mmHg 38%
    10:00 +33°C° 0 mm 1 mps 689 mmHg 29%
    11:00 +37°C° 0 mm 1 mps 690 mmHg 21%
    12:00 +39°C° 0 mm 1 mps 689 mmHg 20%
    13:00 +40°C° 0 mm 1 mps 688 mmHg 20%
    14:00 +41°C° 0 mm 1 mps 687 mmHg 19%
    15:00 +38°C° 0 mm 2 mps 686 mmHg 25%
    16:00 +36°C° 0 mm 2 mps 685 mmHg 31%
    17:00 +34°C° 0 mm 2 mps 684 mmHg 37%
    18:00 +31°C° 0 mm 2 mps 685 mmHg 44%
    19:00 +29°C° 0 mm 1 mps 685 mmHg 51%
    20:00 +27°C° 0 mm 1 mps 685 mmHg 57%
    21:00 +26°C° 0 mm 1 mps 685 mmHg 58%
    22:00 +25°C° 0 mm 1 mps 686 mmHg 59%
    23:00 +25°C° 0 mm 1 mps 686 mmHg 60%

    29 Febrero, Sábado

    Tiempo Temperatura Precipitaciones Viento Presión Humedad
    00:00 +24°C° 0 mm 1 mps 686 mmHg 63%
    01:00 +24°C° 0 mm 1 mps 685 mmHg 67%
    02:00 +23°C° 0 mm 1 mps 685 mmHg 71%
    03:00 +23°C° 0 mm 1 mps 685 mmHg 72%
    04:00 +21°C° 0 mm 0 mps 685 mmHg 74%
    05:00 +21°C° 0 mm 0 mps 685 mmHg 76%
    06:00 +21°C° 0.1 mm 0 mps 686 mmHg 75%
    07:00 +24°C° 0.1 mm 1 mps 687 mmHg 73%
    08:00 +25°C° 0.1 mm 1 mps 688 mmHg 72%
    09:00 +29°C° 0 mm 1 mps 688 mmHg 59%
    10:00 +31°C° 0 mm 0 mps 689 mmHg 46%
    11:00 +34°C° 0 mm 0 mps 690 mmHg 33%
    12:00 +37°C° 0 mm 1 mps 689 mmHg 30%
    13:00 +39°C° 0 mm 1 mps 688 mmHg 27%
    14:00 +40°C° 0 mm 1 mps 687 mmHg 24%
    15:00 +35°C° 0.1 mm 1 mps 686 mmHg 34%
    16:00 +32°C° 0.1 mm 1 mps 685 mmHg 45%
    17:00 +28°C° 0.1 mm 1 mps 685 mmHg 55%
    18:00 +28°C° 0 mm 1 mps 685 mmHg 54%
    19:00 +28°C° 0 mm 1 mps 686 mmHg 53%
    20:00 +28°C° 0 mm 1 mps 686 mmHg 52%
    21:00 +27°C° 0 mm 1 mps 686 mmHg 56%
    22:00 +25°C° 0 mm 1 mps 686 mmHg 60%
    23:00 +24°C° 0 mm 1 mps 686 mmHg 65%
    Mostrar más